Gallup, NM

1:39 AM MST on November 21, 2017 (GMT -0700)
Gallup Municipal

Weather History for KGUP - May, 2014

Change the Weather History Date:

Sunday, May 4, 2014

  Actual Average Record
Temperature  
Mean Temperature 58 °F -  
Max Temperature 80 °F 68 °F 84 °F (2000)
Min Temperature 36 °F 30 °F 26 °F (1991)
Degree Days  
Heating Degree Days 8    
Growing Degree Days 8 (Base 50)    
Moisture  
Dew Point 11 °F    
Average Humidity 18    
Maximum Humidity 39    
Minimum Humidity 6    
Precipitation  
Precipitation 0.00 in - - ()
Sea Level Pressure  
Sea Level Pressure 29.82 in    
Wind  
Wind Speed 10 mph (SSW)    
Max Wind Speed 25 mph    
Max Gust Speed 36 mph    
Visibility 10 miles    
Events      
Averages and records for this station are not official NWS values.
T = Trace of Precipitation, MM = Missing Value Source: NWS Daily Summary

Daily Weather History Graph

Daily Weather History Graph

Search for Another Location

Airport or City:

Trip Planner

Search our weather history database for the weather conditions in past years. The results will help you decide how hot, cold, wet, or windy it might be!

Date:

Astronomy

May. 04, 2014 Rise Set
Actual Time 6:20 AM MDT 8:04 PM MDT
Civil Twilight 5:52 AM MDT 8:31 PM MDT
Nautical Twilight 5:19 AM MDT 9:04 PM MDT
Astronomical Twilight 4:44 AM MDT 9:40 PM MDT
Moon 10:47 AM MDT (5/4) 12:10 AM MDT (5/4)
Length of Visible Light 14h 38m
Length of Day
13h 43m
Waxing Crescent, 28% of the Moon is Illuminated
May 4
Waxing Crescent
May 6
First Quarter
May 14
Full
May 21
Last Quarter
May 28
New

Hourly Weather History & Observations

Time (MDT) Temp. Windchill Dew Point Humidity Pressure Visibility Wind Dir Wind Speed Gust Speed Precip Events Conditions
12:53 AM 45.0 °F 41.8 °F 10.0 °F 24% 29.84 in 10.0 mi East 5.8 mph - N/A   Clear
1:53 AM 36.0 °F 31.1 °F 6.1 °F 29% 29.87 in 10.0 mi East 5.8 mph - N/A   Clear
2:53 AM 41.0 °F 36.4 °F 10.9 °F 29% 29.84 in 10.0 mi NE 6.9 mph - N/A   Clear
3:53 AM 39.9 °F 35.1 °F 12.0 °F 32% 29.83 in 10.0 mi NE 6.9 mph - N/A   Clear
4:53 AM 39.0 °F 36.8 °F 14.0 °F 36% 29.85 in 10.0 mi ENE 3.5 mph - N/A   Clear
5:53 AM 37.9 °F 35.5 °F 12.9 °F 36% 29.87 in 10.0 mi East 3.5 mph - N/A   Clear
6:53 AM 37.0 °F 33.3 °F 14.0 °F 39% 29.90 in 10.0 mi ENE 4.6 mph - N/A   Clear
7:53 AM 48.9 °F - 16.0 °F 27% 29.88 in 10.0 mi East 3.5 mph - N/A   Clear
8:53 AM 60.1 °F - 18.0 °F 20% 29.88 in 10.0 mi Calm Calm - N/A   Clear
9:53 AM 69.1 °F - 15.1 °F 13% 29.85 in 10.0 mi SW 13.8 mph - N/A   Clear
10:53 AM 73.0 °F - 14.0 °F 11% 29.85 in 10.0 mi SW 17.3 mph 25.3 mph N/A   Clear
11:53 AM 75.0 °F - 12.0 °F 9% 29.86 in 10.0 mi WSW 16.1 mph 29.9 mph N/A   Clear
12:53 PM 75.9 °F - 12.0 °F 9% 29.83 in 10.0 mi SW 15.0 mph 29.9 mph N/A   Clear
1:53 PM 77.0 °F - 10.9 °F 8% 29.86 in 10.0 mi WSW 23.0 mph 34.5 mph N/A   Clear
2:53 PM 78.1 °F - 12.9 °F 8% 29.80 in 10.0 mi SW 15.0 mph 32.2 mph N/A   Clear
3:53 PM 79.0 °F - 9.0 °F 7% 29.76 in 10.0 mi SW 24.2 mph 34.5 mph N/A   Clear
4:53 PM 79.0 °F - 7.0 °F 6% 29.77 in 10.0 mi WSW 25.3 mph 35.7 mph N/A   Clear
5:53 PM 77.0 °F - 5.0 °F 6% 29.78 in 10.0 mi SW 25.3 mph 31.1 mph N/A   Clear
6:53 PM 73.9 °F - 8.1 °F 8% 29.81 in 10.0 mi WSW 19.6 mph 29.9 mph N/A   Clear
7:53 PM 70.0 °F - 9.0 °F 9% 29.76 in 10.0 mi WSW 12.7 mph - N/A   Clear
8:53 PM 63.0 °F - 9.0 °F 12% 29.75 in 10.0 mi SW 6.9 mph - N/A   Clear
9:53 PM 57.9 °F - 8.1 °F 14% 29.74 in 10.0 mi SSW 8.1 mph - N/A   Clear
10:53 PM 57.0 °F - 9.0 °F 15% 29.75 in 10.0 mi SW 9.2 mph - N/A   Clear
11:53 PM 57.9 °F - 10.0 °F 15% 29.73 in 10.0 mi SW 11.5 mph - N/A   Clear